Wind_Speed
36 36 36 37 37 37 38 38 38 39 39 40 40 41 41 41 41 41 42 42 42 43 43 44 45 46 47 48 47 48 49 49 50 49 49 49 49 49 49 49 49 49 50
37 37 37 38 38 39 39 39 39 40 40 41 41 42 42 43 43 42 43 43 43 44 44 45 46 47 48 49 49 49 50 51 51 52 51 51 51 51 51 51 51 52 52
37 38 38 39 39 39 40 40 40 41 41 42 42 43 43 44 44 44 44 44 45 45 45 46 47 47 48 49 50 50 51 51 52 53 54 54 54 53 52 53 53 54 55
38 39 39 40 40 41 41 41 42 42 43 43 43 44 44 44 44 45 45 46 46 46 46 46 48 49 49 49 50 51 52 52 53 54 55 56 57 56 55 54 55 56 56
39 40 41 41 41 41 41 42 42 42 43 44 44 44 44 45 45 46 46 46 47 47 47 47 48 49 50 51 51 51 52 53 54 55 56 57 58 59 59 57 56 56 57
41 41 41 41 41 41 41 42 42 42 42 43 44 45 45 46 46 47 47 48 48 48 48 49 49 49 50 51 52 52 53 54 55 56 56 57 58 59 59 58 57 56 56
42 42 42 42 41 41 42 42 42 42 43 43 44 45 46 46 46 47 48 49 49 49 49 49 49 50 50 51 52 52 53 54 55 56 56 57 58 58 58 58 57 57 56
41 41 41 42 42 42 42 42 42 42 43 43 43 44 46 47 47 48 49 49 50 50 50 49 50 50 51 52 52 53 54 54 54 54 55 56 56 57 57 56 57 57 55
40 41 41 41 41 41 42 42 41 42 42 43 44 45 46 47 47 48 49 50 50 50 49 50 50 51 52 53 53 54 54 54 54 54 54 54 54 55 56 57 57 57 56
40 40 40 40 41 42 42 42 42 42 43 44 45 46 46 47 48 49 49 49 49 50 50 51 51 51 52 52 53 54 54 53 54 54 54 54 54 55 55 56 57 57 57
39 40 39 40 41 41 41 41 42 42 43 44 45 46 47 48 48 49 50 50 49 50 50 51 51 52 53 53 54 53 53 53 54 54 54 55 55 56 56 56 55 55 56
39 40 40 40 41 41 42 42 42 43 44 45 46 47 47 48 48 49 49 49 50 51 51 52 52 53 53 53 53 53 53 53 54 54 55 55 56 55 54 55 55 55 55
38 39 40 41 41 41 42 42 43 44 45 46 46 47 47 48 48 49 50 50 50 51 51 52 52 52 53 53 53 52 53 53 53 54 54 55 55 55 54 54 54 54 54
38 39 40 41 41 41 41 42 43 44 45 45 46 46 47 47 48 49 50 50 50 51 51 52 52 53 53 53 53 53 53 53 53 53 53 53 53 53 53 53 53 53 53
39 40 40 40 40 41 41 42 43 44 45 45 45 46 46 47 48 49 49 50 51 51 51 52 53 53 53 53 53 53 53 53 52 52 51 51 52 53 53 53 52 53 53
39 39 39 38 39 40 40 41 42 43 43 44 45 45 46 47 48 48 49 50 50 51 51 51 51 52 52 53 53 53 52 52 51 50 50 50 51 52 53 52 52 52 52
39 39 39 39 40 40 41 41 41 42 43 44 45 45 46 47 47 48 48 49 49 49 49 50 50 51 51 51 52 52 51 50 49 49 50 50 51 52 52 51 51 51 51
39 40 40 39 40 40 41 42 43 43 43 44 45 46 47 47 47 47 47 48 48 49 49 49 50 50 51 51 50 50 48 48 48 49 49 50 50 51 51 51 50 49 49
39 40 40 40 41 41 42 42 43 43 43 44 45 46 46 45 45 45 46 47 47 47 47 49 49 49 48 48 48 48 47 47 48 48 49 49 49 49 50 49 49 48 48
40 40 40 40 40 41 41 41 41 42 43 43 44 44 44 44 44 45 45 45 45 45 46 47 47 47 46 46 46 46 46 46 46 46 47 48 48 48 47 47 47 47 47
40 40 39 40 40 40 41 41 41 42 42 42 43 43 43 43 43 43 43 43 43 45 45 45 45 45 45 45 45 45 45 45 44 44 45 45 46 45 45 45 45 45 44
39 39 39 39 39 40 40 40 40 41 42 42 42 42 42 42 42 42 42 42 43 44 44 43 43 43 43 43 43 44 44 45 44 44 44 44 43 42 42 42 42 41 40
38 38 39 38 39 39 39 39 40 40 41 41 41 41 41 41 41 41 41 42 42 43 42 42 42 42 43 43 43 44 44 43 44 44 44 42 41 40 39 38 37 37 36
37 37 37 38 38 38 38 39 39 39 39 40 40 40 40 40 40 41 41 41 41 42 41 41 41 41 42 42 42 43 42 42 42 42 41 39 38 36 36 35 35 34 33
36 36 37 37 38 38 38 38 38 38 38 38 39 39 39 39 39 40 40 40 41 41 41 40 41 41 41 41 42 42 41 41 40 39 36 35 35 35 34 33 32 31 30
35 36 37 37 37 37 37 37 37 37 37 37 37 37 38 39 39 40 40 40 40 41 41 41 41 41 41 41 40 40 39 38 37 36 34 33 33 33 32 30 29 28 28
Wind_Direction
258 260 262 263 264 264 265 267 268 268 268 268 269 270 271 272 273 274 275 275 275 276 276 277 278 278 277 276 276 275 274 274 275 274 274 275 276 276 276 276 276 276 276
258 260 262 264 264 265 266 268 269 269 269 270 270 271 271 271 273 274 275 275 276 276 277 278 279 278 278 277 276 275 275 275 275 275 274 274 275 275 276 276 276 275 275
260 262 263 264 265 266 267 268 269 269 270 270 271 271 272 272 273 274 275 276 277 277 278 279 280 279 279 279 277 276 276 276 276 276 276 275 275 275 275 276 276 275 275
260 262 264 265 266 266 267 268 269 270 270 271 271 272 272 272 273 274 275 276 277 278 279 280 280 280 280 279 278 278 277 277 278 278 277 278 277 277 276 276 276 276 275
262 263 265 266 266 266 267 269 270 270 271 271 271 271 271 272 273 274 276 277 278 278 279 280 281 281 281 280 280 279 279 279 279 279 279 278 278 278 278 277 276 276 276
263 264 265 266 266 266 268 269 269 270 271 271 271 271 271 272 273 275 276 278 279 280 281 282 283 283 282 281 280 280 280 280 280 280 281 280 279 279 279 278 277 275 275
265 267 267 267 267 266 268 269 268 269 270 271 272 272 272 273 274 275 277 278 280 281 282 283 284 284 283 282 282 282 282 282 282 281 281 281 280 280 280 279 277 276 275
267 268 268 268 267 266 267 268 268 269 270 271 273 273 273 273 275 276 278 279 280 281 282 283 284 284 284 283 282 282 283 283 283 281 282 281 281 281 281 280 278 277 276
267 268 268 268 268 267 267 269 269 269 271 272 273 273 274 274 275 277 279 280 280 281 282 283 284 284 284 284 282 283 284 284 283 283 283 282 282 282 282 281 280 279 277
267 268 268 268 268 268 268 270 270 271 271 272 273 274 275 275 276 277 279 280 281 281 282 284 285 285 285 284 283 284 285 284 284 284 283 283 284 283 283 282 281 280 280
267 268 268 269 269 269 270 271 272 272 272 273 274 275 276 276 277 278 280 280 281 282 284 285 285 286 286 285 284 284 284 284 284 283 283 283 283 283 283 283 281 281 281
267 268 268 269 269 270 271 271 272 273 273 273 276 277 277 277 278 279 280 281 282 282 284 285 286 287 286 286 285 285 285 284 284 284 284 284 283 284 284 282 281 281 282
268 269 269 270 270 271 272 272 273 273 274 275 277 277 278 278 278 280 281 282 283 283 284 285 286 287 287 286 286 285 285 285 285 285 285 284 284 284 283 282 282 282 282
268 269 270 271 271 272 273 273 274 275 275 276 276 278 278 279 280 281 283 284 284 285 286 286 287 287 287 287 286 286 286 286 286 286 285 285 284 284 283 283 283 283 282
269 270 270 271 272 272 273 274 275 275 275 276 277 278 279 280 282 283 284 284 285 286 287 287 287 287 287 287 287 286 286 287 286 286 286 285 285 284 283 283 283 283 283
269 269 270 271 272 272 273 274 275 275 276 277 278 279 280 281 283 284 285 286 287 287 288 288 289 288 288 288 288 287 287 287 286 287 286 286 286 284 283 284 284 284 284
269 270 271 272 273 273 273 274 274 275 276 277 278 279 281 282 283 284 286 287 288 288 289 289 290 290 289 289 289 289 289 288 287 287 287 285 286 286 284 283 284 285 285
269 270 271 272 273 274 274 273 274 275 276 277 278 280 282 283 284 285 286 287 288 289 289 290 291 290 289 288 288 289 289 288 288 288 288 287 287 287 285 283 284 285 286
268 269 271 271 272 272 273 274 274 275 276 278 279 281 282 283 284 285 286 287 288 289 290 291 291 291 290 289 289 289 289 290 290 289 289 288 288 287 287 285 285 286 286
267 268 270 271 272 273 274 274 275 276 277 279 280 282 283 284 285 286 287 288 289 291 292 292 292 291 291 291 291 291 291 291 291 290 290 290 290 288 287 286 286 287 286
266 268 270 271 272 273 274 274 275 276 278 279 281 282 283 285 286 287 288 289 290 292 293 293 293 293 292 292 293 292 292 293 292 291 291 292 291 289 287 286 287 287 287
266 268 270 270 272 273 274 275 276 277 279 280 281 282 283 285 286 287 289 290 292 293 294 295 294 294 294 294 294 293 294 294 294 293 293 293 291 290 288 286 287 287 287
265 267 269 270 272 274 275 276 277 278 279 280 281 283 284 285 287 288 290 291 293 294 295 295 295 296 295 295 294 294 295 295 295 295 295 293 291 290 289 287 287 288 287
266 268 270 272 273 275 275 277 278 279 279 281 282 283 285 286 288 289 291 292 294 295 296 296 297 297 297 296 296 296 296 296 297 298 297 294 291 290 290 288 288 288 286
268 270 272 274 274 275 276 276 277 278 279 281 282 284 285 287 288 290 291 293 294 295 296 297 297 297 297 297 298 298 299 299 299 298 298 296 293 292 290 289 290 288 286
269 270 272 273 274 275 276 277 277 278 280 281 283 285 287 288 289 291 292 293 295 296 297 297 298 298 298 299 300 300 300 299 299 298 298 297 296 294 291 290 290 288 286
Height
5746 5747 5748 5749 5750 5751 5752 5752 5753 5753 5753 5753 5753 5754 5754 5753 5753 5752 5751 5750 5749 5748 5747 5746 5745 5744 5742 5741 5741 5740 5740 5741 5740 5740 5741 5741 5740 5740 5739 5738 5736 5736 5735
5738 5739 5740 5740 5741 5742 5743 5743 5743 5743 5743 5743 5743 5744 5743 5743 5743 5742 5741 5740 5739 5737 5736 5735 5733 5732 5730 5729 5728 5728 5728 5728 5727 5727 5727 5728 5729 5728 5727 5725 5724 5723 5722
5729 5730 5731 5731 5732 5733 5733 5733 5733 5733 5733 5733 5733 5733 5732 5732 5732 5731 5731 5729 5728 5726 5725 5723 5721 5720 5718 5717 5716 5715 5714 5715 5714 5713 5712 5712 5714 5715 5715 5713 5711 5709 5708
5720 5721 5722 5722 5723 5723 5723 5723 5723 5723 5722 5722 5722 5722 5722 5722 5722 5721 5720 5719 5717 5715 5714 5712 5710 5708 5706 5704 5703 5702 5701 5701 5701 5699 5698 5697 5696 5697 5699 5700 5697 5695 5693
5710 5711 5712 5712 5712 5712 5712 5712 5712 5712 5711 5711 5711 5711 5711 5710 5710 5709 5709 5708 5706 5704 5702 5700 5697 5695 5693 5692 5690 5689 5688 5687 5686 5685 5684 5682 5681 5680 5680 5682 5682 5680 5678
5700 5701 5701 5701 5701 5701 5701 5701 5702 5701 5701 5701 5700 5700 5700 5699 5699 5698 5697 5696 5695 5692 5690 5687 5685 5682 5680 5679 5677 5676 5675 5673 5672 5670 5668 5667 5666 5665 5663 5664 5665 5664 5663
5690 5690 5690 5691 5691 5691 5691 5690 5690 5691 5691 5690 5690 5689 5689 5688 5688 5687 5686 5685 5683 5681 5678 5675 5673 5670 5668 5666 5665 5663 5662 5660 5657 5655 5653 5651 5650 5649 5647 5646 5647 5647 5648
5679 5679 5680 5680 5680 5680 5679 5679 5679 5680 5680 5680 5679 5678 5678 5677 5676 5675 5674 5672 5671 5668 5666 5663 5661 5658 5656 5654 5652 5649 5647 5645 5643 5641 5638 5636 5635 5633 5631 5630 5629 5629 5631
5669 5669 5669 5669 5669 5669 5669 5669 5669 5669 5669 5668 5668 5667 5667 5666 5665 5664 5662 5660 5658 5656 5654 5651 5648 5646 5643 5640 5638 5636 5634 5631 5629 5626 5624 5622 5620 5618 5616 5614 5612 5611 5612
5658 5658 5659 5659 5659 5659 5658 5658 5658 5658 5658 5657 5657 5656 5655 5654 5653 5652 5650 5648 5646 5643 5641 5639 5636 5633 5631 5628 5625 5623 5620 5618 5615 5612 5610 5608 5606 5603 5601 5599 5597 5594 5594
5648 5648 5648 5648 5648 5648 5648 5648 5648 5647 5647 5646 5646 5645 5644 5642 5641 5640 5638 5635 5633 5631 5629 5626 5623 5621 5618 5615 5612 5609 5606 5604 5601 5598 5595 5593 5591 5588 5586 5584 5581 5579 5577
5637 5638 5638 5638 5638 5638 5638 5638 5637 5637 5636 5635 5634 5633 5632 5631 5629 5628 5625 5623 5621 5619 5616 5613 5610 5607 5604 5601 5598 5595 5592 5589 5587 5584 5581 5578 5576 5573 5571 5568 5566 5564 5562
5627 5628 5628 5628 5628 5628 5628 5627 5627 5626 5625 5624 5623 5622 5620 5619 5617 5615 5613 5611 5608 5606 5603 5600 5597 5594 5591 5588 5584 5581 5578 5575 5573 5569 5567 5564 5561 5559 5556 5553 5551 5549 5547
5617 5617 5618 5618 5618 5617 5617 5616 5616 5615 5614 5613 5612 5610 5609 5607 5605 5603 5601 5598 5595 5593 5590 5587 5584 5581 5577 5574 5571 5567 5564 5562 5559 5555 5552 5549 5546 5544 5541 5539 5537 5535 5532
5607 5607 5607 5607 5607 5606 5606 5605 5604 5603 5602 5601 5600 5599 5597 5595 5593 5590 5588 5586 5583 5580 5577 5574 5570 5567 5564 5560 5556 5553 5551 5548 5545 5541 5538 5535 5532 5529 5526 5524 5522 5520 5518
5596 5597 5597 5597 5597 5596 5595 5595 5593 5592 5591 5590 5589 5587 5586 5584 5581 5579 5576 5573 5570 5567 5564 5560 5557 5553 5550 5546 5542 5539 5537 5533 5530 5527 5524 5521 5518 5515 5512 5510 5508 5505 5503
5586 5587 5587 5587 5586 5586 5585 5584 5583 5582 5581 5580 5578 5576 5574 5572 5569 5567 5564 5561 5558 5555 5551 5547 5543 5540 5536 5532 5529 5525 5522 5519 5516 5513 5510 5508 5505 5501 5499 5497 5494 5492 5489
5576 5576 5576 5576 5576 5575 5574 5573 5572 5571 5570 5569 5567 5565 5563 5560 5558 5555 5552 5549 5545 5542 5538 5535 5531 5526 5523 5519 5515 5512 5509 5506 5502 5499 5497 5494 5491 5488 5485 5483 5481 5478 5475
5566 5566 5566 5566 5565 5564 5564 5563 5561 5560 5559 5557 5555 5553 5551 5549 5546 5543 5540 5537 5533 5530 5526 5522 5518 5514 5510 5506 5502 5499 5496 5493 5489 5486 5483 5480 5477 5474 5471 5469 5467 5465 5462
5555 5556 5556 5555 5554 5553 5553 5552 5550 5549 5548 5546 5544 5542 5540 5537 5535 5532 5528 5525 5522 5518 5514 5510 5505 5501 5498 5494 5490 5487 5484 5481 5478 5474 5470 5466 5463 5460 5457 5455 5453 5451 5449
5545 5545 5545 5545 5544 5543 5542 5541 5539 5538 5537 5535 5533 5531 5528 5526 5523 5520 5517 5514 5510 5507 5503 5499 5494 5490 5486 5482 5479 5475 5471 5468 5465 5461 5458 5454 5450 5447 5444 5442 5439 5437 5435
5534 5534 5534 5534 5533 5532 5531 5530 5529 5528 5526 5524 5522 5520 5517 5514 5512 5509 5506 5503 5499 5496 5492 5487 5483 5479 5475 5471 5467 5463 5459 5456 5452 5449 5446 5442 5438 5435 5432 5430 5427 5425 5422
5524 5524 5524 5524 5523 5522 5521 5520 5518 5517 5515 5513 5511 5508 5506 5503 5501 5498 5495 5492 5488 5484 5480 5476 5472 5469 5464 5460 5456 5452 5449 5445 5441 5437 5434 5430 5426 5424 5421 5419 5416 5414 5412
5514 5514 5514 5513 5513 5511 5510 5509 5507 5506 5504 5502 5500 5498 5495 5493 5490 5487 5484 5481 5477 5473 5470 5466 5462 5458 5454 5450 5446 5442 5438 5434 5430 5426 5423 5419 5416 5413 5411 5409 5406 5404 5402
5503 5504 5503 5503 5502 5501 5500 5498 5497 5495 5493 5491 5489 5487 5485 5482 5480 5477 5473 5470 5467 5462 5459 5455 5451 5448 5444 5439 5435 5431 5427 5423 5420 5416 5413 5410 5407 5404 5402 5399 5397 5395 5393
5493 5493 5493 5492 5491 5490 5489 5488 5486 5485 5483 5481 5479 5477 5475 5472 5469 5466 5463 5459 5456 5452 5448 5444 5440 5437 5433 5429 5425 5421 5417 5413 5409 5406 5403 5400 5398 5395 5393 5391 5389 5387 5386